Starlink 2725

operational
NORAD ID: 48681 Int'l Des: 2021-044 Owner: SPXS Country: US Constellation: starlink
LEOCIRCULARSTARLINK_TYPE

About Starlink 2725

Description loading...

Live Position

Loading 3D Globe...

Upcoming Passes

Altitude History

Altitude vs Time

uPlot chart will show altitude changes over time

Two-Line Element Set

1 48681U 21044AV 26012.59438850 .00002539 00000-0 18932-3 0 9996
2 48681 53.0544 333.6800 0001495 88.4543 271.6617 15.06397025255802
Epoch: Jan 12, 2026 • Age: 15 hours

Current Status

Altitude 551.6 km
Velocity 7.59 km/s
Sub-Earth Point 48.06°N, 94.5°W
Launch Date May 26, 2021
Age 4.6 years
Type internet

Technical Details

Classification Payload
Mass 260.00 kg
Dry Mass 248.00 kg
Total Mass 260.00 kg
Length 0.20 m
Diameter 2.80 m
Span 9.00 m
Shape Box + pan
Manufacturer SPXS
Bus Type Starlink
Phase Status In Orbit
Owner/State SPXS/US

Large Constellations

Loading constellations...